Location: Auttagershofen
(48.1940°N, 10.0237°E)
Time: 21:22:56
(UTC+00:00)

Cosmos 2184 Rocket - Pass Details

Date: 18 January 2026
Orbit: 959 x 1001 km, 82.9° (Epoch: 18 February)

Event Time Altitude Azimuth Distance (km) Brightness Sun altitude
Rises 04:51:46 0° 193° (SSW) 3,649 6.9 -21.5°
Reaches altitude 10° 04:54:16 10° 196° (SSW) 2,701 6.2 -21.0°
Maximum altitude 05:00:26 73° 280° (W) 1,010 3.8 -20.0°
Drops below altitude 10° 05:06:37 10° 6° (N) 2,704 6.3 -19.0°
Sets 05:09:09 0° 8° (N) 3,653 7.0 -18.6°
